{"data":{"norad_id":52894,"intl_designator":"2022-065A","name":"PVSAT","alt_names":[],"object_type":"PAYLOAD","status":"ACTIVE","operator":null,"country":"SKOR","launch_date":"2022-06-21","launch_site_code":"NSC","launch_vehicle":null,"mission":null,"orbit_class":"UNKNOWN","rcs_meters":null,"size_class":null,"mass_kg":null,"dimensions":null,"purposes":[],"wikipedia_slug":null,"has_3d_model":false,"image_url":null,"decayed_at":null,"tle_current":{"epoch":"2026-05-24T22:56:16.082016Z","epoch_age_seconds":72079,"freshness":"FRESH","line1":"1 52894U 22065A   26144.95574169  .00000219  00000+0  55947-4 0  9991","line2":"2 52894  98.2254 284.5536 0010634  90.8666 269.3752 14.59527411208960","mean_motion":14.59527411,"eccentricity":0.0010634,"inclination_deg":98.2254,"raan_deg":284.5536,"arg_perigee_deg":90.8666,"mean_anomaly_deg":269.3752,"bstar":5.5947e-5,"rev_number":20896,"period_min":98.66207302084,"perigee_km":687.17909205799,"apogee_km":702.22160252822,"semimajor_km":7072.8373472931,"source":"CELESTRAK","updated_at":"2026-05-25T13:37:57.952289Z"}}}